Flag for Canada Weather past 2 weeks in Sault Ste. Marie, Ontario, Canada

Now
43 °F

Overcast.


Feels Like: 39 °F
Forecast: N/A
Wind: 7 mph from Southeast

Location: Sault Ste Marie

Current Time: Apr 1, 2015 at 6:00:45 PM

Latest Report: Apr 1, 2015 at 5:00 PM


Visibility: 15 mi

Pressure: 30.01 "Hg

Humidity: 57%

Dew point: 28 °F

Location of Sault Ste. MarieLocation

Historic Weather in Sault Ste. Marie — Graph

°F

Sault Ste. Marie temperature yesterday

Maximum temperature yesterday: 36 °F (at 3:00 PM)
Minimum temperature yesterday: 9 °F (at 8:00 AM)
Average temperature yesterday: 23 °F

Past Weeks' High & Low Weather Summary

 TemperatureHumidityPressure
High45 °F (Apr 1, 3:00 PM)100% (Mar 21, 3:00 AM)30.50 "Hg (Mar 21, 3:00 AM)
Low-8 °F (Mar 22, 7:00 AM)38% (Mar 19, 4:00 PM)29.48 "Hg (Mar 29, 11:00 PM)
Average21 °F77%30.11 "Hg
* Reported Mar 17 4:00 PM — Apr 1 4:00 PM, Sault Ste. Marie, Weather by CustomWeather, © 2015

Note: Actual official high and low records may vary slightly from our data, if they occured in-between our weather recording intervals... More about our weather records

Advertising

Sault Ste. Marie weather history for previous 24 hours

 ConditionsComfort  
Time TempWeatherWind HumidityBarometerVisibility
4:00 PM
Wed, Apr 1
43 °FPartly sunny.10 mph61%30.02 "Hg15 mi
3:00 PM45 °FBroken clouds.6 mph53%30.06 "Hg15 mi
2:00 PM43 °FBroken clouds.8 mph61%30.09 "Hg15 mi
1:00 PM39 °FPartly sunny.9 mph70%30.11 "Hg15 mi
12:00 PM37 °FPartly sunny.8 mph75%30.10 "Hg15 mi
11:00 AM36 °FPartly sunny.6 mph70%30.11 "Hg15 mi
10:00 AM34 °FPartly sunny.6 mph70%30.11 "Hg15 mi
9:00 AM28 °FPartly sunny.3 mph93%30.11 "Hg15 mi
8:00 AM27 °FPassing clouds.No wind93%30.09 "Hg15 mi
7:00 AM27 °FOvercast.3 mph100%30.07 "Hg15 mi
6:00 AM27 °FLight snow. Overcast.3 mph100%30.06 "Hg10 mi
5:00 AM27 °FLight snow. Overcast.6 mph100%30.05 "Hg3 mi
4:00 AM27 °FLight snow. Overcast.7 mph100%30.04 "Hg10 mi
3:00 AM28 °FChilly.3 mph93%30.02 "Hg10 mi
2:00 AM28 °FLight snow. Passing clouds.3 mph93%30.01 "Hg10 mi
1:00 AM28 °FLight snow. Mostly cloudy.5 mph93%30.02 "Hg8 mi
12:00 AM28 °FOvercast.7 mph93%30.01 "Hg8 mi
11:00 PM
Tue, Mar 31
28 °FLight snow. Mostly cloudy.3 mph86%30.01 "Hg6 mi
10:00 PM30 °FLight snow. Mostly cloudy.5 mph80%30.01 "Hg6 mi
9:00 PM30 °FMore clouds than sun.7 mph75%29.99 "Hg15 mi
8:00 PM30 °FCloudy.7 mph75%29.97 "Hg15 mi
7:00 PM30 °FMostly cloudy.7 mph75%29.95 "Hg15 mi
6:00 PM32 °FCloudy.8 mph64%29.93 "Hg15 mi
Weather by CustomWeather, © 2015

See weather overviewHow to use our weather pages